This is the latest recevied weather packets stored in our database for station/object IK3SVW-3. If no packets are shown the sender has not sent any weather packets the latest 10 day(s).
| Time | Temp. | Humidity | Pressure | Rain* | Wind** | Luminosity | Snow |
|---|---|---|---|---|---|---|---|
| 1777930672 | 18.89° C | 53% | 1015 hPa | 0 mm | - | - | - |
| 1777930005 | 18.89° C | 53% | 1015 hPa | 0 mm | - | - | - |
| 1777929347 | 18.89° C | 51% | 1015 hPa | 0 mm | - | - | - |
| 1777927727 | 18.89° C | 49% | 1015 hPa | 0 mm | - | - | - |
| 1777927067 | 19.44° C | 49% | 1015 hPa | 0 mm | - | - | - |
| 1777926441 | 19.44° C | 49% | 1015 hPa | 0 mm | - | - | - |
| 1777926405 | 19.44° C | 49% | 1015 hPa | 0 mm | - | - | - |
| 1777925746 | 19.44° C | 47% | 1015 hPa | 0 mm | - | - | - |
| 1777925094 | 20° C | 45% | 1015 hPa | 0 mm | - | - | - |
| 1777923829 | 20.56° C | 42% | 1015 hPa | 0 mm | - | - | - |
| 1777922506 | 20.56° C | 40% | 1015 hPa | 0 mm | - | - | - |
| 1777921486 | 21.11° C | 38% | 1014 hPa | 0 mm | - | - | - |
| 1777920532 | 21.11° C | 36% | 1014 hPa | 0 mm | - | - | - |
| 1777919208 | 21.67° C | 34% | 1014 hPa | 0 mm | - | - | - |
| 1777918586 | 22.22° C | 34% | 1014 hPa | 0 mm | - | - | - |
| 1777918550 | 22.22° C | 34% | 1014 hPa | 0 mm | - | - | - |
| 1777917888 | 22.22° C | 35% | 1014 hPa | 0 mm | - | - | - |
| 1777917603 | 22.22° C | 34% | 1014 hPa | 0 mm | - | - | - |
| 1777916940 | 22.78° C | 34% | 1014 hPa | 0 mm | - | - | - |
| 1777916270 | 22.78° C | 34% | 1014 hPa | 0 mm | - | - | - |
| 1777914945 | 23.89° C | 34% | 1014 hPa | 0 mm | - | - | - |
| 1777913989 | 23.89° C | 37% | 1014 hPa | 0 mm | - | - | - |
| 1777912005 | 25.56° C | 34% | 1014 hPa | 0 mm | - | - | - |
| 1777911346 | 25° C | 34% | 1014 hPa | 0 mm | - | - | - |
| 1777909733 | 24.44° C | 35% | 1014 hPa | 0 mm | - | - | - |
* Rain latest hour (hover to see other rain measurements)
** Current wind speed in m/s (hover to see current wind gust speed)